Weather History for Breckenridge, TX

Change the Weather History Date:

Wednesday, October 2, 2013

  Actual Average (KABI) Record (KABI)
Temperature  
Mean Temperature 81 °F 70 °F  
Max Temperature 90 °F 82 °F 99 °F (2000)
Min Temperature 72 °F 59 °F 40 °F (1975)
Degree Days  
Heating Degree Days 0 1  
Month to date heating degree days 2  
Since 1 July heating degree days 13  
Cooling Degree Days 16 6  
Month to date cooling degree days 13  
Year to date cooling degree days 2284  
Growing Degree Days 31 (Base 50)    
Moisture  
Dew Point 65 °F    
Average Humidity 61    
Maximum Humidity 91    
Minimum Humidity 36    
Precipitation  
Precipitation 0.00 in 0.08 in 1.50 in (1941)
Month to date precipitation 0.17  
Year to date precipitation 19.37  
Sea Level Pressure  
Sea Level Pressure 29.90 in    
Wind  
Wind Speed 10 mph (SSE)    
Max Wind Speed 17 mph    
Max Gust Speed 23 mph    
Visibility 10 miles    
Events      
T = Trace of Precipitation, MM = Missing Value Source: NWS Daily Summary

Daily Weather History Graph

Daily Weather History Graph

Search for Another Location

Airport:

Trip Planner

Search our weather history database for the weather conditions in past years. The results will help you decide how hot, cold, wet, or windy it might be!

Date:

Astronomy

Oct. 02, 2013 Rise Set
Actual Time 7:30 AM CDT 7:18 PM CDT
Civil Twilight 7:05 AM CDT 7:43 PM CDT
Nautical Twilight 6:37 AM CDT 8:11 PM CDT
Astronomical Twilight 6:08 AM CDT 8:40 PM CDT
Moon 5:11 AM CDT (10/2) 5:50 PM CDT (10/2)
Length of Visible Light 12h 37m
Length of Day
11h 47m
Waning Crescent, 6% of the Moon is Illuminated
Oct 2
Waning Crescent
Oct 4
New
Oct 11
First Quarter
Oct 18
Full
Oct 26
Last Quarter

Hourly Weather History & Observations

Time (CDT) Temp. Heat Index Dew Point Humidity Pressure Visibility Wind Dir Wind Speed Gust Speed Precip Events Conditions
12:15 AM 75.6 °F - 59.5 °F 57% 29.91 in 10.0 mi SSE 8.1 mph - N/A   Clear
12:35 AM 75.6 °F - 59.7 °F 58% 29.91 in 10.0 mi SSE 11.5 mph - N/A   Clear
12:55 AM 75.2 °F - 59.9 °F 59% 29.90 in 10.0 mi SE 11.5 mph - N/A   Clear
1:15 AM 74.8 °F - 60.1 °F 60% 29.90 in 10.0 mi SE 9.2 mph - N/A   Clear
1:35 AM 74.5 °F - 60.6 °F 62% 29.90 in 10.0 mi SE 9.2 mph - N/A   Clear
1:55 AM 74.3 °F - 61.0 °F 63% 29.90 in 10.0 mi SSE 9.2 mph - N/A   Clear
2:15 AM 75.4 °F - 62.2 °F 64% 29.90 in 10.0 mi SSE 8.1 mph - N/A   Clear
2:35 AM 74.8 °F - 62.6 °F 66% 29.90 in 10.0 mi SSE 9.2 mph - N/A   Clear
2:55 AM 74.1 °F - 63.1 °F 68% 29.90 in 10.0 mi SSE 8.1 mph - N/A   Clear
3:15 AM 73.9 °F - 63.5 °F 70% 29.90 in 10.0 mi South 9.2 mph - N/A   Clear
3:35 AM 73.4 °F - 63.9 °F 72% 29.90 in 10.0 mi SSE 6.9 mph - N/A   Clear
3:55 AM 72.9 °F - 64.2 °F 74% 29.89 in 10.0 mi SSE 8.1 mph - N/A   Clear
4:15 AM 72.5 °F - 64.4 °F 76% 29.89 in 10.0 mi SSE 8.1 mph - N/A   Clear
4:35 AM 72.1 °F - 65.1 °F 78% 29.90 in 10.0 mi SSE 8.1 mph - N/A   Clear
4:55 AM 72.5 °F - 65.7 °F 79% 29.90 in 10.0 mi SSE 10.4 mph 16.1 mph N/A   Clear
5:15 AM 72.3 °F - 66.2 °F 81% 29.90 in 10.0 mi SSE 10.4 mph - N/A   Clear
5:35 AM 72.5 °F - 67.1 °F 83% 29.91 in 10.0 mi South 9.2 mph 16.1 mph N/A   Clear
5:55 AM 72.0 °F - 68.9 °F 90% 29.91 in 10.0 mi South 6.9 mph - N/A   Scattered Clouds
6:15 AM 72.5 °F - 69.4 °F 90% 29.91 in 10.0 mi South 8.1 mph - N/A   Mostly Cloudy
6:35 AM 72.7 °F - 69.4 °F 90% 29.91 in 10.0 mi South 6.9 mph - N/A   Mostly Cloudy
6:55 AM 72.9 °F - 69.8 °F 90% 29.92 in 10.0 mi South 6.9 mph - N/A   Mostly Cloudy
7:15 AM 72.9 °F - 69.8 °F 90% 29.92 in 10.0 mi South 8.1 mph 16.1 mph N/A   Clear
7:35 AM 72.9 °F - 70.0 °F 91% 29.93 in 10.0 mi South 9.2 mph - N/A   Clear
7:55 AM 73.4 °F - 70.2 °F 90% 29.93 in 10.0 mi SSE 6.9 mph - N/A   Mostly Cloudy
8:15 AM 73.9 °F - 70.3 °F 88% 29.94 in 10.0 mi SSE 10.4 mph - N/A   Mostly Cloudy
8:35 AM 74.7 °F - 70.0 °F 85% 29.94 in 10.0 mi SSE 9.2 mph - N/A   Clear
8:55 AM 75.7 °F - 69.1 °F 80% 29.95 in 10.0 mi South 11.5 mph 17.3 mph N/A   Scattered Clouds
9:15 AM 77.4 °F - 68.9 °F 75% 29.95 in 10.0 mi South 9.2 mph 16.1 mph N/A   Scattered Clouds
9:35 AM 78.8 °F - 68.7 °F 71% 29.95 in 10.0 mi South 12.7 mph 23.0 mph N/A   Scattered Clouds
9:55 AM 79.9 °F - 68.5 °F 68% 29.96 in 10.0 mi South 12.7 mph 20.7 mph N/A   Scattered Clouds
10:15 AM 80.2 °F 83.0 °F 68.5 °F 67% 29.96 in 10.0 mi South 17.3 mph 23.0 mph N/A   Mostly Cloudy
10:35 AM 79.9 °F - 68.2 °F 67% 29.96 in 10.0 mi South 13.8 mph 23.0 mph N/A   Overcast
10:55 AM 80.6 °F 83.4 °F 68.2 °F 66% 29.96 in 10.0 mi South 11.5 mph 19.6 mph N/A   Overcast
11:15 AM 82.2 °F 85.3 °F 68.5 °F 63% 29.96 in 10.0 mi South 15.0 mph 20.7 mph N/A   Mostly Cloudy
11:35 AM 81.3 °F 84.1 °F 68.2 °F 64% 29.96 in 10.0 mi South 11.5 mph 18.4 mph N/A   Mostly Cloudy
11:55 AM 83.5 °F 86.7 °F 68.2 °F 60% 29.95 in 10.0 mi South 15.0 mph 20.7 mph N/A   Mostly Cloudy
12:15 PM 84.6 °F 87.4 °F 67.5 °F 56% 29.94 in 10.0 mi SSW 15.0 mph 19.6 mph N/A   Overcast
12:35 PM 85.5 °F 88.2 °F 67.3 °F 54% 29.94 in 10.0 mi South 16.1 mph 21.9 mph N/A   Overcast
12:55 PM 86.7 °F 88.7 °F 65.5 °F 49% 29.93 in 10.0 mi SSE 16.1 mph 20.7 mph N/A   Mostly Cloudy
1:15 PM 86.5 °F 88.1 °F 64.8 °F 48% 29.92 in 10.0 mi SSE 15.0 mph 21.9 mph N/A   Mostly Cloudy
1:35 PM 87.6 °F 89.1 °F 64.4 °F 46% 29.91 in 10.0 mi SSE 10.4 mph 18.4 mph N/A   Scattered Clouds
1:55 PM 87.4 °F 88.8 °F 64.2 °F 46% 29.90 in 10.0 mi SSE 11.5 mph 19.6 mph N/A   Mostly Cloudy
2:15 PM 87.4 °F 88.5 °F 63.5 °F 45% 29.89 in 10.0 mi South 15.0 mph 21.9 mph N/A   Mostly Cloudy
2:35 PM 88.5 °F 88.6 °F 61.5 °F 40% 29.88 in 10.0 mi SSE 13.8 mph 19.6 mph N/A   Scattered Clouds
2:55 PM 90.0 °F 90.0 °F 61.2 °F 38% 29.88 in 10.0 mi South 12.7 mph 20.7 mph N/A   Scattered Clouds
3:15 PM 89.4 °F 89.0 °F 60.3 °F 37% 29.87 in 10.0 mi South 15.0 mph 20.7 mph N/A   Scattered Clouds
3:35 PM 90.5 °F 90.4 °F 61.0 °F 37% 29.86 in 10.0 mi South 11.5 mph 18.4 mph N/A   Scattered Clouds
3:55 PM 89.6 °F 89.2 °F 60.4 °F 37% 29.85 in 10.0 mi South 12.7 mph 16.1 mph N/A   Scattered Clouds
4:15 PM 90.5 °F 90.4 °F 61.2 °F 37% 29.85 in 10.0 mi SE 10.4 mph 17.3 mph N/A   Scattered Clouds
4:35 PM 90.5 °F 90.1 °F 60.4 °F 36% 29.84 in 10.0 mi South 10.4 mph 19.6 mph N/A   Scattered Clouds
4:55 PM 89.2 °F 89.0 °F 60.8 °F 38% 29.84 in 10.0 mi SSE 12.7 mph - N/A   Scattered Clouds
5:15 PM 89.2 °F 88.7 °F 60.1 °F 37% 29.84 in 10.0 mi SSE 13.8 mph 17.3 mph N/A   Clear
5:35 PM 89.2 °F 88.7 °F 60.1 °F 37% 29.84 in 10.0 mi SSE 10.4 mph 21.9 mph N/A   Scattered Clouds
5:55 PM 88.5 °F 88.3 °F 60.4 °F 39% 29.84 in 10.0 mi SSE 9.2 mph - N/A   Scattered Clouds
6:15 PM 89.1 °F 88.5 °F 59.9 °F 37% 29.84 in 10.0 mi South 10.4 mph 19.6 mph N/A   Clear
6:35 PM 88.7 °F 88.3 °F 60.3 °F 38% 29.84 in 10.0 mi SSE 10.4 mph - N/A   Clear
6:55 PM 87.6 °F 87.4 °F 60.4 °F 40% 29.84 in 10.0 mi SSE 10.4 mph - N/A   Clear
7:15 PM 86.9 °F 86.7 °F 60.8 °F 41% 29.84 in 10.0 mi SSE 6.9 mph - N/A   Clear
7:35 PM 84.9 °F 85.4 °F 62.1 °F 46% 29.84 in 10.0 mi SE 6.9 mph - N/A   Clear
7:55 PM 83.7 °F 84.5 °F 62.6 °F 49% 29.85 in 10.0 mi SE 6.9 mph - N/A   Scattered Clouds
8:15 PM 82.8 °F 83.6 °F 62.6 °F 50% 29.85 in 10.0 mi SE 8.1 mph - N/A   Scattered Clouds
8:35 PM 82.6 °F 83.6 °F 62.6 °F 51% 29.85 in 10.0 mi SE 10.4 mph - N/A   Clear
8:55 PM 81.9 °F 82.9 °F 62.8 °F 52% 29.86 in 10.0 mi SE 6.9 mph - N/A   Clear
9:15 PM 81.7 °F 83.0 °F 63.7 °F 54% 29.87 in 10.0 mi SSE 10.4 mph - N/A   Clear
9:35 PM 81.3 °F 82.9 °F 64.4 °F 56% 29.88 in 10.0 mi SE 9.2 mph - N/A   Clear
9:55 PM 80.8 °F 82.5 °F 64.6 °F 58% 29.88 in 10.0 mi SSE 11.5 mph 17.3 mph N/A   Clear
10:15 PM 80.6 °F 82.4 °F 65.3 °F 59% 29.88 in 10.0 mi SE 11.5 mph 18.4 mph N/A   Clear
10:35 PM 79.7 °F - 65.5 °F 62% 29.88 in 10.0 mi SSE 15.0 mph - N/A   Clear
10:55 PM 79.3 °F - 65.7 °F 63% 29.88 in 10.0 mi SSE 13.8 mph 19.6 mph N/A   Clear
11:15 PM 79.0 °F - 65.8 °F 64% 29.88 in 10.0 mi SSE 12.7 mph 19.6 mph N/A   Clear
11:35 PM 78.8 °F - 66.2 °F 65% 29.88 in 10.0 mi SSE 15.0 mph 18.4 mph N/A   Clear
11:55 PM 78.4 °F - 66.2 °F 66% 29.88 in 10.0 mi SSE 12.7 mph - N/A   Clear